Tracking 19570 objects as of 22-Feb-2019
HD Live streaming from Space Station
objects crossing your sky now

COSMOS 1619

Track COSMOS 1619 now!
10-day predictions
COSMOS 1619 is classified as:


NORAD ID: 15471
Int'l Code: 1985-003C
Perigee: 1,388.7 km
Apogee: 1,420.5 km
Inclination: 82.6 °
Period: 113.7 minutes
Semi major axis: 7775 km
RCS: 1.1254 m2 (large)
Launch date: January 15, 1985
Source: Commonwealth of Independent States (former USSR) (CIS)
Launch site: PLESETSK MISSILE AND SPACE COMPLEX (PKMTR)
aabbcc
Your satellite tracking list
Your tracking list is empty




NASA's NSSDC Master Catalog

Two Line Element Set (TLE):
1 15471U 85003C   19052.77422965  .00000038  00000-0  14397-3 0  9991
2 15471  82.6091 313.5090 0020419  26.0427  27.5178 12.66199789576088
Source of the keplerian elements: AFSPC